Las Vegas, NV

10:22 AM PDT on May 25, 2017 (GMT -0700)
McCarran International

Weather History for KLAS - February, 2012

Change the Weather History Date:

Sunday, February 19, 2012

  Actual Average Record
Temperature  
Mean Temperature 52 °F 54 °F  
Max Temperature 59 °F 63 °F 82 °F (1981)
Min Temperature 44 °F 44 °F 25 °F (1952)
Degree Days  
Heating Degree Days 13 11  
Month to date heating degree days 217 249  
Since 1 July heating degree days 1562 1601  
Cooling Degree Days 0 0  
Month to date cooling degree days 0 0  
Year to date cooling degree days 0 0  
Growing Degree Days 2 (Base 50)    
Moisture  
Dew Point 21 °F    
Average Humidity 43    
Maximum Humidity 71    
Minimum Humidity 15    
Precipitation  
Precipitation T in 0.03 in 0.23 in (1938)
Month to date precipitation 0.06 0.49  
Year to date precipitation 0.06 1.03  
Snow  
Snow 0.00 in 0.00 in 1.40 in (1990)
Month to date snowfall 0.0 0.1  
Since 1 July snowfall 0.0 0.3  
Snow Depth 0.00 in    
Sea Level Pressure  
Sea Level Pressure 29.85 in    
Wind  
Wind Speed 9 mph (NW)    
Max Wind Speed 25 mph    
Max Gust Speed 32 mph    
Visibility 10 miles    
Events      
T = Trace of Precipitation, MM = Missing Value Source: NWS Daily Summary

Daily Weather History Graph

Daily Weather History Graph

Search for Another Location

Airport or City:

Trip Planner

Search our weather history database for the weather conditions in past years. The results will help you decide how hot, cold, wet, or windy it might be!

Date:

Astronomy

Feb. 19, 2012 Rise Set
Actual Time 6:23 AM PST 5:25 PM PST
Civil Twilight 5:57 AM PST 5:51 PM PST
Nautical Twilight 5:27 AM PST 6:21 PM PST
Astronomical Twilight 4:58 AM PST 6:51 PM PST
Moon 4:44 AM PST (2/19) 3:33 PM PST (2/19)
Length of Visible Light 11h 53m
Length of Day
11h 01m
Waning Crescent, 5% of the Moon is Illuminated
Feb 19
Waning Crescent
Feb 21
New
Feb 29
First Quarter
Mar 8
Full
Mar 14
Last Quarter

Hourly Weather History & Observations

Time (PST) Temp. Windchill Dew Point Humidity Pressure Visibility Wind Dir Wind Speed Gust Speed Precip Events Conditions
12:56 AM 55.0 °F - 34.0 °F 45% 29.78 in 10.0 mi NW 5.8 mph - 0.00 in   Overcast
1:56 AM 51.1 °F - 39.0 °F 63% 29.77 in 10.0 mi WNW 4.6 mph - 0.00 in   Mostly Cloudy
2:56 AM 50.0 °F - 37.0 °F 61% 29.77 in 10.0 mi SSE 4.6 mph - N/A   Partly Cloudy
3:56 AM 48.9 °F - 37.0 °F 64% 29.77 in 10.0 mi South 4.6 mph - N/A   Partly Cloudy
4:56 AM 46.9 °F - 37.0 °F 68% 29.78 in 10.0 mi South 6.9 mph - N/A   Partly Cloudy
5:56 AM 46.9 °F - 37.0 °F 68% 29.80 in 10.0 mi Calm Calm - N/A   Partly Cloudy
6:56 AM 46.0 °F 41.0 °F 35.1 °F 66% 29.82 in 10.0 mi SSW 10.4 mph - N/A   Partly Cloudy
7:56 AM 48.0 °F - 35.1 °F 61% 29.83 in 10.0 mi SSW 8.1 mph - N/A   Scattered Clouds
8:56 AM 54.0 °F - 25.0 °F 33% 29.84 in 10.0 mi NW 16.1 mph 23.0 mph N/A   Scattered Clouds
9:56 AM 55.4 °F - 21.2 °F 26% 29.86 in 10.0 mi North 12.7 mph 27.6 mph N/A   Scattered Clouds
10:56 AM 55.9 °F - 19.0 °F 24% 29.85 in 10.0 mi NNW 17.3 mph 29.9 mph N/A   Mostly Cloudy
11:56 AM 57.0 °F - 19.9 °F 24% 29.84 in 10.0 mi NNW 11.5 mph 25.3 mph N/A   Scattered Clouds
12:56 PM 57.9 °F - 19.9 °F 23% 29.83 in 10.0 mi NNW 10.4 mph 19.6 mph N/A   Scattered Clouds
1:56 PM 59.0 °F - 18.0 °F 20% 29.82 in 10.0 mi NNW 13.8 mph 23.0 mph N/A   Scattered Clouds
2:56 PM 59.0 °F - 16.0 °F 19% 29.82 in 10.0 mi NNW 13.8 mph 18.4 mph N/A   Scattered Clouds
3:56 PM 57.9 °F - 10.9 °F 16% 29.83 in 10.0 mi NNW 15.0 mph 21.9 mph N/A   Scattered Clouds
4:56 PM 55.9 °F - 9.0 °F 15% 29.85 in 10.0 mi NW 12.7 mph - N/A   Partly Cloudy
5:56 PM 55.9 °F - 9.0 °F 15% 29.88 in 10.0 mi NNW 12.7 mph 17.3 mph N/A   Partly Cloudy
6:56 PM 54.0 °F - 7.0 °F 15% 29.89 in 10.0 mi NNW 9.2 mph 17.3 mph N/A   Partly Cloudy
7:56 PM 52.0 °F - 6.1 °F 16% 29.91 in 10.0 mi ENE 5.8 mph - N/A   Clear
8:56 PM 50.0 °F - 10.0 °F 20% 29.95 in 10.0 mi NNE 3.5 mph - N/A   Clear
9:56 PM 48.9 °F - 10.0 °F 21% 29.97 in 10.0 mi South 4.6 mph - N/A   Clear
10:56 PM 46.9 °F - 10.9 °F 23% 29.98 in 10.0 mi South 6.9 mph - N/A   Clear
11:56 PM 44.1 °F 40.1 °F 12.0 °F 27% 30.00 in 10.0 mi South 6.9 mph - N/A   Clear